Location: Follega
(52.8850°N, 5.7362°E)
Time: 00:46:23
(UTC+00:00)

Cosmos 2297 Rocket - Pass Details

Date: 01 October 2020
Orbit: 838 x 845 km, 71.0° (Epoch: 22 October)

Event Time Altitude Azimuth Distance (km) Brightness Sun altitude
Rises 22:48:33 0° 328° (NNW) 3,417 6.1 -40.2°
Reaches altitude 10° 22:51:01 10° 327° (NNW) 2,478 5.2 -40.2°
Enters shadow 22:52:51 22° 327° (NNW) 1,798 4.3 -40.3°
